FW3276 Weather Reports


Display with metric or nautical units.
time (UTC)temp
F
wind
direction
speed
MPH
gust
MPH
rain 1hr
in
rain 24hr
in
rain mn
in
humidity
%
barometer
mb
20260505223038 75 247 10.0 20.0 0.00 0.00 0.00 25 1005.8
20260505221541 75 235 7.0 14.0 0.00 0.00 0.00 26 1005.8
20260505220052 75 191 9.0 19.0 0.00 0.00 0.00 28 1005.9
20260505214539 75 238 7.0 19.0 0.00 0.00 0.00 28 1005.7
20260505213039 75 230 7.0 19.0 0.00 0.00 0.00 27 1005.8
20260505211539 75 142 9.0 22.0 0.00 0.00 0.00 26 1005.7
20260505210044 77 244 8.0 22.0 0.00 0.00 0.00 26 1005.5
20260505204533 78 170 8.0 20.0 0.00 0.00 0.00 23 1005.6
20260505203034 78 170 12.0 23.0 0.00 0.00 0.00 24 1005.6
20260505201533 78 254 7.0 21.0 0.00 0.00 0.00 27 1005.7
20260505200030 78 268 7.0 16.0 0.00 0.00 0.00 28 1005.7
20260505194529 78 164 7.0 16.0 0.00 0.00 0.00 23 1005.6
20260505193034 77 184 6.0 17.0 0.00 0.00 0.00 29 1006.0
20260505191526 76 180 6.0 20.0 0.00 0.00 0.00 27 1006.1
20260505190023 78 217 12.0 24.0 0.00 0.00 0.00 25 1006.4
20260505184521 77 227 6.0 20.0 0.00 0.00 0.00 29 1006.4
20260505183029 77 258 6.0 18.0 0.00 0.00 0.00 28 1006.7
20260505181519 77 155 8.0 20.0 0.00 0.00 0.00 27 1006.6
20260505180021 77 176 11.0 22.0 0.00 0.00 0.00 25 1006.9
20260505174515 77 263 6.0 18.0 0.00 0.00 0.00 29 1007.0
20260505173011 77 208 5.0 20.0 0.00 0.00 0.00 26 1007.1
20260505171510 76 189 4.0 22.0 0.00 0.00 0.00 32 1007.5
20260505170009 77 229 10.0 19.0 0.00 0.00 0.00 30 1007.4
20260505164506 76 228 9.0 19.0 0.00 0.00 0.00 32 1007.4
20260505163003 75 259 5.0 12.0 0.00 0.00 0.00 33 1007.8
20260505161601 75 263 6.0 16.0 0.00 0.00 0.00 36 1007.9
20260505153104 73 253 6.0 16.0 0.00 0.00 0.00 36 1008.4
20260505151544 72 161 8.0 15.0 0.00 0.00 0.00 37 1008.6
20260505124508 62 225 4.0 10.0 0.00 0.00 0.00 48 1009.1
20260505123006 60 190 1.0 7.0 0.00 0.00 0.00 49 1009.1
20260505121600 58 228 2.0 7.0 0.00 0.00 0.00 50 1009.1
20260505120106 56 239 2.0 7.0 0.00 0.00 0.00 50 1009.4
20260505114556 54 226 0.0 3.0 0.00 0.00 0.00 54 1009.3
20260505113112 54 225 1.0 5.0 0.00 0.00 0.00 54 1009.2
20260505111554 52 225 1.0 4.0 0.00 0.00 0.00 56 1009.2
20260505101546 52 234 1.0 7.0 0.00 0.00 0.00 56 1008.7
20260505100044 51 248 2.0 6.0 0.00 0.00 0.00 57 1008.7
20260505094543 52 275 0.0 3.0 0.00 0.00 0.00 55 1008.5
20260505093045 53 275 0.0 4.0 0.00 0.00 0.00 54 1008.2
20260505091543 53 275 1.0 6.0 0.00 0.00 0.00 54 1008.3
20260505090043 53 275 2.0 6.0 0.00 0.00 0.00 54 1008.2
20260505084547 52 247 1.0 6.0 0.00 0.00 0.00 56 1008.3
20260505083048 51 176 0.0 5.0 0.00 0.00 0.00 58 1008.2
20260505081543 51 270 3.0 6.0 0.00 0.00 0.00 57 1009.0
20260505080034 51 220 0.0 0.0 0.00 0.00 0.00 56 1008.8
20260505074533 52 220 0.0 0.0 0.00 0.00 0.00 55 1008.4
20260505073033 52 220 0.0 0.0 0.00 0.00 0.00 54 1008.3
20260505071529 53 220 0.0 0.0 0.00 0.00 0.00 52 1008.4
20260505070033 54 220 0.0 0.0 0.00 0.00 0.00 51 1008.5
20260505064522 54 220 0.0 0.0 0.00 0.00 0.00 50 1008.6
20260505063028 55 220 0.0 0.0 0.00 0.00 0.00 49 1008.7
20260505061522 55 220 0.0 0.0 0.00 0.00 0.00 49 1008.7
20260505060019 55 220 0.0 2.0 0.00 0.00 0.00 49 1008.9
20260505054518 55 219 0.0 2.0 0.00 0.00 0.00 49 1008.9
20260505053020 56 219 0.0 4.0 0.00 0.00 0.00 48 1008.9
20260505051518 56 218 0.0 3.0 0.00 0.00 0.00 46 1008.9
20260505041509 56 215 0.0 3.0 0.00 0.00 0.00 45 1008.7
20260505040006 57 209 0.0 7.0 0.00 0.00 0.00 44 1008.6
20260505034505 57 222 2.0 5.0 0.00 0.00 0.00 42 1008.6
20260505033005 58 209 1.0 5.0 0.00 0.00 0.00 42 1008.7
20260505031506 58 207 0.0 4.0 0.00 0.00 0.00 41 1008.8
20260505030004 58 252 0.0 1.0 0.00 0.00 0.00 40 1009.0
20260505024505 59 252 0.0 2.0 0.00 0.00 0.00 40 1009.0
20260505023004 59 229 0.0 4.0 0.00 0.00 0.00 41 1009.0
20260505021504 59 230 0.0 7.0 0.00 0.00 0.00 41 1009.1
20260505020002 59 205 0.0 4.0 0.00 0.00 0.00 40 1009.2
20260505014504 60 223 1.0 6.0 0.00 0.00 0.00 40 1009.0
20260505013001 60 189 3.0 8.0 0.00 0.00 0.00 40 1009.1
20260505011500 60 193 3.0 8.0 0.00 0.00 0.00 39 1008.9
20260505010101 61 295 1.0 7.0 0.00 0.00 0.00 39 1008.6
20260505004612 61 220 1.0 7.0 0.00 0.00 0.00 38 1008.5
20260505003059 62 221 1.0 9.0 0.00 0.00 0.00 38 1008.4
20260505001627 63 196 2.0 6.0 0.00 0.00 0.00 35 1008.1
20260505000109 64 227 0.0 7.0 0.00 0.00 0.00 34 1008.1
20260504234559 65 194 2.0 15.0 0.00 0.00 0.00 34 1008.1
20260504233110 66 254 2.0 10.0 0.00 0.00 0.00 33 1008.0
20260504231558 66 260 4.0 13.0 0.00 0.00 0.00 31 1007.8
20260504230058 67 220 5.0 13.0 0.00 0.00 0.00 31 1007.6
20260504224555 67 294 6.0 17.0 0.00 0.00 0.00 29 1007.5